Terminal Aerodrome Forecast
Issued by NWS

Home | Current Version | Previous Version | Text Only | Print | Product List | Glossary On
Versions: 1 2 3 4 5 6 7 8 9 10 11 12 13 14 15 16 17 18 19 20 21
000
FTUS46 KLOX 301739
TAFBUR
TAF
KBUR 301739Z 3018/3118 VRB03KT 4SM HZ BKN250
     FM301900 17010KT P6SM SKC
     FM310500 VRB03KT P6SM SKC
     FM311100 VRB03KT 4SM BR BKN003=

USA.gov is the U.S. government's official web portal to all federal, state and local government web resources and services.